Weather History for Hamilton Island, QU

Change the Weather History Date:

Wednesday, November 9, 2011

  Actual Average Record
Temperature  
Mean Temperature 76 °F -  
Max Temperature 80 °F - - ()
Min Temperature 73 °F - - ()
Cooling Degree Days 12    
Growing Degree Days 26 (Base 50)    
Moisture  
Dew Point 68 °F    
Average Humidity 72    
Maximum Humidity 88    
Minimum Humidity 56    
Precipitation  
Precipitation 0.00 in - - ()
Sea Level Pressure  
Sea Level Pressure 29.99 in    
Wind  
Wind Speed 16 mph ()    
Max Wind Speed 22 mph    
Max Gust Speed -    
T = Trace of Precipitation, MM = Missing Value Source: Averaged Metar Reports

Daily Weather History Graph

Daily Weather History Graph

Search for Another Location

Airport:

Trip Planner

Search our weather history database for the weather conditions in past years. The results will help you decide how hot, cold, wet, or windy it might be!

Date:

Astronomy

Nov. 09, 2011 Rise Set
Actual Time 5:18 AM AEST 6:17 PM AEST
Civil Twilight 4:55 AM AEST 6:40 PM AEST
Nautical Twilight 4:27 AM AEST 7:08 PM AEST
Astronomical Twilight 3:59 AM AEST 7:36 PM AEST
Moon 4:59 PM AEST (11/9) 3:53 AM AEST (11/9)
Length of Visible Light 13h 45m
Length of Day
12h 58m
Waxing Gibbous, 97% of the Moon is Illuminated
Nov 9
Waxing Gibbous
Nov 11
Full
Nov 19
Last Quarter
Nov 25
New
Dec 2
First Quarter

Hourly Weather History & Observations

Time (AEST) Temp. Heat Index Dew Point Humidity Pressure Visibility Wind Dir Wind Speed Gust Speed Precip Events Conditions
12:00 AM 75 °F - 68 °F 73% 29.99 in - ESE 17.3 mph - -  
12:00 AM 75.2 °F - 68.0 °F 78% 29.98 in - ESE 17.3 mph - N/A   Unknown
1:00 AM 75.2 °F - 68.0 °F 78% 29.98 in - ESE 18.4 mph - N/A   Unknown
2:00 AM 75.2 °F - 68.0 °F 78% 29.98 in - ESE 15.0 mph - N/A   Unknown
3:00 AM 74 °F - 69 °F 79% 29.96 in - ESE 15.0 mph - -  
3:00 AM 75.2 °F - 68.0 °F 78% 29.95 in - ESE 15.0 mph - N/A   Unknown
4:00 AM 75.2 °F - 68.0 °F 78% 29.95 in - East 13.8 mph - N/A   Unknown
5:00 AM 73.4 °F - 68.0 °F 83% 29.95 in - ESE 13.8 mph - N/A   Unknown
6:00 AM 74 °F - 70 °F 82% 29.99 in - East 18.4 mph - -  
6:00 AM 73.4 °F - 69.8 °F 88% 29.98 in - East 18.4 mph - N/A   Unknown
7:00 AM 75.2 °F - 69.8 °F 83% 30.01 in - ESE 17.3 mph - N/A   Unknown
8:00 AM 77.0 °F - 69.8 °F 78% 30.01 in - ESE 18.4 mph - N/A   Unknown
9:00 AM 79 °F - 68 °F 62% 30.03 in - East 21.9 mph - -  
9:00 AM 78.8 °F - 68.0 °F 69% 30.04 in - East 21.9 mph - N/A   Unknown
10:00 AM 80.6 °F 83.2 °F 68.0 °F 65% 30.04 in - East 19.6 mph - N/A   Unknown
11:00 AM 80.6 °F 83.2 °F 68.0 °F 65% 30.04 in - East 20.7 mph - N/A   Unknown
12:00 PM 80 °F - 67 °F 56% 30.01 in - East 19.6 mph - -  
12:00 PM 80.6 °F 83.2 °F 68.0 °F 65% 30.01 in - East 19.6 mph - N/A   Unknown
1:00 PM 80.6 °F 83.2 °F 68.0 °F 65% 29.98 in - East 19.6 mph - N/A   Unknown
2:00 PM 80.6 °F 83.2 °F 68.0 °F 65% 29.98 in - ESE 19.6 mph - N/A   Unknown
3:00 PM 79 °F - 68 °F 60% 29.96 in - ESE 20.7 mph - -  
3:00 PM 78.8 °F - 68.0 °F 69% 29.98 in - ESE 20.7 mph - N/A   Unknown
4:00 PM 78.8 °F - 68.0 °F 69% 29.95 in - ESE 19.6 mph - N/A   Unknown
5:00 PM 77.0 °F - 68.0 °F 74% 29.98 in - ESE 16.1 mph - N/A   Unknown
6:00 PM 76 °F - 68 °F 70% 29.99 in - ESE 16.1 mph - -  
6:00 PM 77.0 °F - 68.0 °F 74% 29.98 in - ESE 17.3 mph - N/A   Unknown
7:00 PM 75.2 °F - 68.0 °F 78% 30.01 in - ESE 16.1 mph - N/A   Unknown
8:00 PM 77.0 °F - 68.0 °F 74% 30.01 in - ESE 19.6 mph - N/A   Unknown
9:00 PM 76 °F - 66 °F 65% 30.02 in - East 19.6 mph - -  
9:00 PM 75.2 °F - 66.2 °F 73% 30.01 in - East 19.6 mph - N/A   Unknown
10:00 PM 75.2 °F - 66.2 °F 73% 30.04 in - ESE 17.3 mph - N/A   Unknown
11:00 PM 75.2 °F - 66.2 °F 73% 30.01 in - East 19.6 mph - N/A   Unknown